Torna al catalogo

CZ-3B DEB

AttivoGTO
NORAD 40851·DEBRIS·🇨🇳 China

Lanciato Dec 19, 2011 da Xichang Satellite Launch Center

Loading…

TLE

In scadenzaSource: Space-Track

Epoca: Sep 14, 2026, 11:24 UTC

1 40851U 11077AG  26257.47509580 -.00000243  00000-0  22976-2 0  9992
2 40851  26.5856 359.4151 7360404  38.2438 355.5813  1.90206144 87925

Traccia CZ-3B DEB in tempo reale con AllMySat

Download on the App Store